Theta_e
315 317 319 324 316 315 318 317 316 316 317 318 317 317 316 318 318 316 322 323 325 319 315 316 319 317 326 332 329 328 333 332 332 332 328 324 322 322 322 324 324 324 322 322 319 319 320 318 318
315 317 321 325 318 315 312 316 318 314 316 318 318 319 318 317 321 322 322 321 323 323 319 316 317 319 322 326 328 330 333 333 333 333 324 320 319 322 323 323 322 321 321 321 321 320 319 320 322
316 319 323 315 313 313 315 315 315 316 317 318 318 318 319 319 320 322 322 321 321 321 320 316 315 320 329 331 331 334 335 333 333 330 321 320 321 320 319 318 318 317 316 314 313 313 313 313 313
318 321 318 318 318 317 316 316 313 315 317 317 317 315 318 320 319 320 321 321 321 320 319 315 313 313 327 328 329 329 331 329 323 314 315 316 316 314 314 313 312 312 312 310 308 306 305 305 305
319 319 312 315 314 314 312 315 314 314 315 316 316 315 316 317 318 319 318 320 320 320 319 315 313 313 316 319 318 316 315 315 315 314 314 314 313 312 311 309 306 305 304 303 303 304 304 304 304
318 316 315 314 313 313 313 316 315 314 315 315 315 315 317 317 317 318 318 317 317 319 320 316 314 314 313 314 315 314 313 313 312 312 312 311 309 306 304 303 303 303 304 304 304 304 304 304 304
316 312 315 313 313 314 315 314 314 314 315 315 317 315 317 317 317 317 318 317 317 317 319 319 314 314 313 314 314 313 312 311 310 310 308 307 305 304 303 303 304 304 304 305 305 305 305 305 305
318 313 315 312 314 315 315 315 315 315 316 317 316 314 316 318 318 317 317 317 317 317 318 319 315 314 314 314 313 311 310 309 308 307 306 304 303 304 304 304 304 305 305 305 306 306 306 306 306
317 311 311 313 313 315 315 314 316 316 316 315 317 317 318 318 318 317 317 317 317 316 316 318 317 314 314 313 312 310 309 308 308 306 304 303 303 303 304 304 304 305 305 305 305 305 305 305 305
315 308 310 310 311 314 315 315 317 315 315 314 316 317 317 317 317 317 317 317 317 317 316 316 317 315 314 313 312 310 309 308 308 307 304 303 303 303 304 304 304 305 305 305 305 305 305 305 305
314 313 310 313 315 316 315 314 316 313 311 315 316 317 317 316 316 316 316 317 317 317 317 316 316 316 315 313 312 310 309 308 308 306 304 303 304 304 304 304 304 304 304 305 305 305 305 304 304
315 315 314 315 316 316 314 315 313 315 317 317 317 316 316 316 316 316 316 316 316 317 317 316 315 316 315 314 312 311 309 308 307 306 304 303 304 304 304 304 304 304 304 305 305 304 304 304 303
313 314 316 317 316 317 317 314 313 315 318 317 316 315 315 316 316 316 316 316 316 316 316 316 316 315 315 315 313 311 310 308 308 306 304 303 303 303 304 304 304 304 304 304 304 304 304 303 303
313 313 313 314 315 315 314 315 313 316 316 316 316 315 316 316 316 316 315 316 316 316 316 316 315 315 314 314 314 313 311 310 308 307 306 304 303 303 302 302 302 303 303 303 304 303 303 303 303
314 312 308 309 312 310 312 311 309 315 315 315 315 315 316 317 317 317 317 317 316 316 316 316 315 315 314 314 313 313 312 310 308 307 306 304 302 302 302 302 301 302 302 303 303 303 303 303 302
310 309 310 309 308 311 312 311 312 314 313 314 315 316 317 317 316 316 316 317 316 316 316 315 315 315 315 314 313 312 312 310 308 308 306 304 303 302 302 302 301 301 301 302 302 303 303 302 302
306 308 307 307 308 309 309 309 309 313 313 314 315 315 315 315 316 316 315 315 315 316 316 315 315 315 315 314 313 312 311 310 309 307 305 304 303 302 302 301 300 300 300 301 301 302 302 302 302
308 306 306 307 308 308 309 308 308 313 310 311 313 313 314 314 315 315 315 315 314 314 315 316 315 315 315 314 313 312 311 309 308 307 305 304 303 302 301 300 300 299 299 300 301 301 301 301 301
307 306 306 306 307 309 309 309 309 310 311 310 311 311 312 313 315 314 314 314 314 314 314 314 315 315 314 314 313 312 312 311 309 308 306 304 303 302 301 300 299 299 299 299 299 300 300 301 301
307 308 308 309 308 306 307 309 308 308 309 311 311 311 312 312 313 314 314 314 314 314 314 314 314 314 315 315 314 313 313 311 311 310 308 306 303 302 301 300 299 299 298 298 299 299 300 300 300
306 306 308 308 307 305 305 309 307 307 308 309 310 311 311 312 313 315 315 313 313 314 314 314 314 314 314 314 313 312 310 309 309 307 306 306 304 303 302 300 299 298 297 297 298 298 299 299 299
310 306 308 308 308 309 307 310 309 312 311 307 309 311 312 314 314 313 313 314 313 313 314 314 313 313 313 312 312 312 313 312 312 311 310 308 306 304 302 301 299 298 297 297 297 297 298 298 298
308 308 307 307 307 307 308 308 311 308 309 307 307 311 313 313 312 313 314 314 315 314 314 314 314 313 313 313 312 311 310 312 312 310 310 308 306 304 302 300 299 298 297 297 296 296 297 297 297
307 309 307 304 306 309 308 309 309 308 310 310 309 312 312 313 313 314 314 314 314 313 313 314 314 312 312 311 311 312 311 310 310 310 309 308 306 304 302 301 299 298 297 296 296 296 296 296 296
308 307 308 308 308 312 307 307 312 310 308 309 309 312 313 311 312 313 313 314 314 313 312 312 312 312 311 309 308 309 309 309 309 309 309 309 307 305 304 303 301 299 298 296 296 296 295 295 295
306 307 310 311 309 314 307 309 311 307 309 309 308 311 310 311 311 312 313 313 313 313 312 311 310 311 310 310 308 307 307 307 308 308 308 308 308 307 306 304 302 300 299 297 296 295 295 294 294
306 308 307 310 300 305 311 311 310 306 307 307 309 311 308 311 313 311 312 312 313 312 312 310 309 308 309 309 309 309 308 307 308 308 308 307 307 306 305 304 302 301 299 298 296 295 295 294 294
306 305 309 308 313 312 312 310 313 311 311 309 305 305 310 312 312 312 309 311 311 311 310 310 310 310 310 309 309 308 309 309 308 308 308 307 307 306 305 304 302 301 299 298 297 296 295 294 293
306 307 307 307 311 316 317 315 313 310 308 307 306 309 310 309 307 308 309 309 309 309 309 306 305 305 305 305 306 306 305 304 306 307 307 307 306 305 305 304 302 301 299 298 298 297 296 294 293
307 310 309 313 312 309 312 314 312 311 310 308 305 302 304 303 303 303 302 302 303 302 304 306 306 304 304 305 305 304 304 304 304 304 305 305 306 305 304 304 302 301 300 299 298 297 297 295 295
Wind_Speed
5 4 2 2 4 5 4 6 2 3 2 2 8 6 7 4 6 4 2 7 10 17 19 19 18 18 20 18 15 14 12 12 12 11 12 14 14 12 11 10 9 9 8 6 5 4 4 5 6
5 3 2 2 4 2 5 4 5 6 2 4 6 4 2 6 11 5 5 10 11 15 18 17 17 15 17 18 16 14 15 13 12 13 14 12 11 11 10 9 8 8 9 9 7 6 7 7 7
4 3 1 4 3 4 5 5 4 3 5 4 2 5 3 4 8 7 7 11 12 13 17 17 16 16 15 15 16 16 16 16 15 14 13 12 11 10 9 9 10 11 11 9 9 8 8 8 10
2 2 4 3 6 7 7 5 3 2 4 7 4 5 6 10 4 7 10 10 12 13 17 18 18 18 20 19 19 19 21 15 15 12 11 11 11 11 10 9 10 9 9 8 9 8 8 8 8
2 1 2 2 5 6 5 11 6 3 2 2 4 5 6 8 13 11 7 12 14 14 16 20 20 19 20 21 20 19 19 17 15 12 12 11 10 9 9 9 8 8 7 5 4 3 3 3 4
1 2 3 3 5 6 7 9 3 4 5 3 4 7 8 12 11 12 11 11 13 15 16 20 21 21 20 20 20 20 19 17 14 13 12 11 10 10 10 9 8 7 6 5 3 2 2 2 2
4 3 3 3 5 6 4 1 3 3 4 7 5 2 5 8 9 10 11 13 14 16 18 21 22 21 21 21 21 19 18 16 15 14 13 11 11 10 9 8 7 6 5 4 3 2 1 2 3
2 4 1 4 2 6 3 2 4 6 6 7 6 6 5 2 5 10 13 16 17 19 21 22 24 23 23 22 21 20 19 17 16 15 14 13 13 12 11 9 8 7 5 4 3 3 3 3 3
3 3 2 5 5 5 2 1 3 5 8 7 9 18 19 16 13 13 17 19 20 22 23 25 27 26 25 25 23 23 21 20 18 17 16 15 15 14 13 11 10 8 6 4 3 4 5 5 5
4 4 8 7 5 5 5 4 12 4 9 12 19 25 26 26 24 23 23 23 24 24 24 26 28 29 29 28 27 26 24 23 21 19 17 17 16 16 14 12 11 9 7 5 5 5 5 5 6
6 6 6 8 17 13 7 7 10 3 8 23 22 22 22 26 28 28 28 28 27 24 26 27 29 30 31 31 30 29 28 26 25 23 21 21 20 18 16 14 12 10 8 6 6 6 6 6 7
3 14 12 6 7 6 5 8 7 12 36 34 32 30 30 29 30 32 32 30 30 30 29 29 30 32 32 32 33 31 31 29 28 26 26 25 24 21 19 17 14 12 10 8 8 7 7 8 7
5 6 14 23 20 22 23 24 14 20 45 43 37 32 33 31 30 31 31 32 33 35 33 32 31 34 34 35 35 35 34 33 30 30 29 28 27 24 22 21 18 16 14 11 9 9 8 8 9
3 8 12 16 20 16 9 26 4 28 41 40 34 32 26 25 26 28 30 32 34 34 35 34 35 35 36 36 36 36 36 35 34 33 31 30 28 26 25 23 21 19 15 12 11 10 9 10 10
5 7 8 9 15 8 11 12 10 40 33 36 36 33 28 26 26 28 26 30 33 33 33 36 37 37 38 38 38 38 37 37 37 36 34 33 32 30 28 26 24 21 18 16 13 13 12 12 11
3 1 5 2 8 3 11 9 26 26 25 30 32 28 30 31 26 32 35 37 36 35 36 37 38 40 40 41 40 41 39 39 39 38 37 36 34 32 31 30 27 24 21 18 16 15 14 13 11
2 5 7 11 16 5 8 9 15 17 12 20 30 31 37 44 48 48 46 44 43 40 39 37 40 41 42 43 43 43 42 42 41 40 40 38 37 35 34 32 30 27 24 21 19 18 16 15 13
9 5 7 7 4 5 6 15 11 41 20 29 41 40 48 53 55 53 52 48 45 44 43 40 40 42 41 43 45 46 45 45 43 43 42 41 40 39 38 35 33 30 27 25 23 20 18 16 15
3 6 8 9 8 3 15 18 18 27 32 33 35 39 47 52 53 47 43 38 35 32 35 42 41 41 43 46 49 51 51 48 47 46 45 43 43 42 40 38 36 33 30 27 23 22 20 17 15
9 13 14 14 16 5 14 22 16 17 23 41 39 37 41 41 47 45 41 38 34 30 29 32 39 41 43 46 48 52 52 51 48 48 48 47 46 44 42 40 38 36 33 30 28 25 22 20 17
8 6 16 15 6 5 9 14 12 9 22 36 41 41 38 40 41 39 36 36 31 30 29 30 33 39 43 46 49 52 53 52 52 54 51 50 48 47 46 42 40 37 35 32 29 27 24 22 19
19 11 14 9 4 5 4 11 16 22 20 10 28 28 33 29 29 31 30 32 31 26 23 24 28 33 41 45 49 52 55 56 56 53 51 50 49 49 47 45 42 40 37 35 32 30 28 25 23
10 3 6 2 4 4 4 4 2 3 5 11 10 27 23 17 20 22 27 33 34 29 26 26 28 32 39 43 45 50 53 55 55 52 51 51 49 49 48 46 43 42 40 38 36 34 31 29 26
4 2 3 4 2 6 13 11 3 5 5 4 5 10 13 16 14 23 32 37 40 31 22 22 28 33 36 41 44 46 49 55 55 53 50 48 49 49 48 47 45 44 42 40 37 35 33 31 28
2 5 4 4 0 9 2 6 12 3 8 7 9 17 17 6 19 31 37 38 38 40 31 26 26 28 33 38 40 43 45 50 52 51 49 47 46 49 49 49 49 48 45 42 39 38 36 35 32
6 8 6 8 5 13 1 9 6 9 7 10 3 9 3 7 20 33 37 39 35 38 34 26 26 26 25 27 32 36 40 44 46 48 49 48 44 43 46 48 49 47 45 42 41 40 38 36 34
4 6 3 2 2 3 11 19 9 6 1 2 4 5 5 24 37 36 34 35 32 35 31 23 23 20 21 22 23 27 33 40 43 47 48 47 45 42 42 44 47 47 45 43 42 41 40 38 36
6 2 1 2 2 6 12 7 15 11 17 14 8 10 32 39 42 44 34 31 32 30 26 21 22 23 21 22 24 27 30 34 40 44 47 47 45 43 43 43 44 47 46 45 44 44 41 40 39
2 3 4 3 5 9 11 13 14 10 2 6 3 15 26 35 34 27 33 27 23 19 19 24 27 27 26 28 30 33 34 36 39 43 45 46 45 46 45 45 45 45 47 48 47 46 43 42 41
8 10 11 12 10 10 17 23 25 19 15 11 26 28 32 31 29 28 27 28 26 26 22 21 23 23 23 28 30 34 38 40 39 41 43 46 48 48 47 46 46 47 46 49 51 50 47 46 45
Wind_Direction
226 233 268 299 44 59 270 262 260 258 248 192 144 163 197 184 170 212 225 176 183 191 192 192 194 193 192 199 204 199 193 198 197 201 210 215 218 221 216 212 208 214 226 234 252 245 250 256 263
223 233 253 100 94 48 268 254 234 235 261 173 177 173 196 245 229 266 201 177 179 189 197 196 195 191 191 200 204 199 199 203 201 200 224 231 225 219 222 227 228 229 240 254 277 280 271 269 272
217 208 221 94 114 192 226 224 233 249 226 187 232 228 236 223 230 222 220 198 193 190 196 197 193 184 184 183 189 189 193 195 201 205 224 224 232 239 238 243 245 248 257 270 274 274 275 276 275
198 173 61 103 227 251 219 249 240 282 234 228 230 270 247 238 247 214 219 214 212 202 196 197 198 198 189 187 192 193 201 198 213 229 228 232 239 246 248 243 245 250 256 267 274 278 282 278 276
188 29 48 319 262 264 254 270 257 207 254 221 207 270 254 251 245 244 224 219 222 218 208 202 202 206 202 204 208 211 222 225 231 237 231 233 234 231 230 231 239 246 252 254 253 258 268 284 290
91 67 39 265 262 273 273 258 220 208 231 248 217 253 258 262 252 243 234 216 218 222 216 210 209 211 211 212 216 222 225 230 236 235 231 227 225 221 221 217 209 207 203 208 213 228 262 276 279
118 90 226 253 269 303 263 300 206 210 237 252 233 230 267 287 263 243 224 218 220 220 219 217 217 218 218 218 223 226 227 227 227 227 227 226 228 222 210 202 200 205 208 207 213 222 253 280 304
149 97 278 250 264 275 310 224 286 226 259 252 213 241 264 279 263 238 232 226 223 223 222 221 223 223 221 223 225 226 229 229 226 223 222 220 216 211 211 212 213 214 220 233 263 287 292 305 318
150 62 251 253 183 252 277 290 278 268 266 245 233 247 268 273 271 244 230 228 229 228 225 223 223 225 224 226 227 226 228 230 229 225 221 216 214 210 210 209 210 218 233 254 284 303 310 317 322
146 145 226 216 210 243 290 253 288 271 261 261 262 269 272 271 268 262 251 245 237 236 233 228 226 226 226 225 226 227 229 230 232 232 230 222 218 215 215 212 215 223 237 256 270 284 296 310 320
182 208 214 243 246 267 278 273 265 223 274 261 261 290 289 281 268 261 260 257 258 254 239 237 231 229 229 229 229 227 229 230 231 230 227 225 224 224 221 222 224 228 237 250 269 284 293 302 312
219 241 235 262 257 271 252 279 253 226 268 284 287 289 280 275 275 269 264 265 262 253 246 241 237 234 233 231 232 232 231 231 231 230 227 226 227 226 224 226 230 233 238 247 263 275 283 292 302
218 240 250 262 273 274 278 263 253 261 284 288 286 285 279 274 274 271 269 267 261 256 251 246 242 239 236 234 233 232 232 233 233 232 229 227 225 226 226 226 227 230 235 240 250 265 276 284 296
241 260 274 281 272 256 217 270 242 269 281 283 285 285 280 272 276 275 268 267 263 260 254 249 246 243 241 239 237 236 235 234 233 233 232 230 229 227 226 226 227 230 233 242 254 263 272 284 295
281 310 308 231 253 232 223 294 224 275 280 283 285 283 283 276 276 276 283 281 275 267 262 255 249 246 244 242 241 239 238 235 234 233 231 229 228 228 228 228 229 231 233 239 249 258 267 276 284
293 181 307 250 151 246 165 249 274 282 271 277 284 281 288 280 279 285 283 280 280 274 263 256 251 247 245 244 243 242 239 237 235 234 232 230 230 229 230 230 229 230 233 237 240 250 259 270 281
333 243 228 304 208 133 186 248 266 282 265 270 279 278 284 286 281 279 281 279 277 278 272 261 252 248 245 243 243 243 241 240 237 235 232 230 231 230 231 231 230 231 232 234 242 249 257 265 277
226 226 251 248 296 178 224 252 272 280 287 267 276 277 279 282 281 284 286 286 282 277 271 264 256 250 246 243 241 240 240 237 237 236 234 232 232 231 231 230 230 231 232 235 239 245 252 260 270
182 233 247 257 262 265 262 265 264 269 283 273 269 271 274 276 287 289 291 293 292 286 272 261 257 251 241 239 238 236 236 235 234 233 233 233 232 231 231 230 229 231 232 235 237 242 248 257 266
250 261 267 274 265 221 268 274 268 257 254 263 270 272 269 280 288 294 298 298 297 296 284 269 258 251 246 242 241 238 237 236 237 236 231 229 229 230 232 231 231 231 231 231 235 240 246 252 258
226 229 259 263 310 253 298 278 236 268 254 261 266 263 273 279 290 299 310 312 310 307 301 284 265 252 247 243 240 236 235 235 233 232 231 229 229 228 229 230 232 232 233 234 238 240 243 246 250
268 223 255 266 348 262 2 296 293 276 265 248 268 273 280 288 296 313 327 329 327 323 309 289 270 260 252 246 242 238 236 233 236 236 234 231 230 230 230 229 228 230 232 233 235 237 238 240 244
239 206 243 188 205 327 216 250 359 84 259 265 263 273 285 312 340 357 359 355 338 320 313 298 272 255 251 247 244 242 238 237 237 236 235 232 230 230 231 230 230 230 231 232 233 235 237 240 242
89 67 45 48 76 269 199 200 13 153 204 311 296 270 325 345 15 17 9 1 357 331 302 296 280 262 252 250 244 244 240 239 237 234 235 234 232 231 230 231 231 232 233 232 233 236 236 238 241
141 95 308 317 354 251 290 224 236 233 233 207 253 287 315 37 28 8 2 354 349 344 325 295 279 270 257 250 247 246 242 240 241 240 239 236 234 232 230 231 230 231 232 233 233 233 236 239 239
187 170 173 233 247 287 76 248 257 211 237 250 301 275 261 16 359 351 355 348 348 344 332 317 287 275 270 263 258 255 250 247 245 244 242 243 242 240 237 234 233 233 234 234 234 236 237 236 237
174 178 220 287 36 285 268 279 279 249 218 286 47 267 356 340 327 333 337 336 343 342 328 328 317 301 288 277 268 263 257 250 246 246 245 245 246 245 242 239 237 235 234 235 236 238 238 238 238
171 213 39 356 235 256 277 292 260 303 297 309 357 7 325 327 327 330 334 346 343 336 335 342 348 334 315 294 281 271 263 257 253 248 247 248 248 248 245 243 239 236 234 233 234 236 237 237 238
148 234 228 296 214 238 259 267 270 263 325 300 311 339 335 337 345 341 335 347 341 328 323 323 325 315 308 305 296 286 275 260 253 252 252 250 249 249 248 245 242 238 234 232 233 234 235 236 237
194 232 232 248 257 238 250 252 287 296 297 335 22 33 11 13 10 8 6 1 360 0 352 334 329 326 316 307 300 293 287 283 276 270 262 256 252 251 248 247 244 241 238 236 234 234 232 232 234